| time (UTC) | temp C | wind direction | speed KPH | gust KPH | rain 1hr cm | rain 24hr cm | rain mn cm | humidity % | barometer mb |
| 20260507185557 | 10 | 0 | 0.0 | 6.4 | 0.00 | 0.03 | 0.03 | 47 | 1010.4 |
| 20260507185057 | 10 | 0 | 0.0 | 8.0 | 0.00 | 0.03 | 0.03 | 46 | 1010.4 |
| 20260507184920 | 10 | 0 | 0.0 | 12.9 | 0.00 | 0.03 | 0.03 | 46 | 1010.6 |
| 20260507184805 | 10 | 0 | 0.0 | 12.9 | 0.00 | 0.03 | 0.03 | 46 | 1010.6 |
| 20260507184732 | 10 | 0 | 0.0 | 12.9 | 0.00 | 0.03 | 0.03 | 46 | 1010.6 |
| 20260507184057 | 10 | 360 | 0.0 | 12.9 | 0.00 | 0.03 | 0.03 | 46 | 1010.4 |
| 20260507183557 | 10 | 0 | 0.0 | 12.9 | 0.00 | 0.03 | 0.03 | 47 | 1010.5 |
| 20260507183101 | 10 | 345 | 0.0 | 9.7 | 0.00 | 0.03 | 0.03 | 47 | 1010.6 |
| 20260507182600 | 10 | 0 | 0.0 | 6.4 | 0.00 | 0.03 | 0.03 | 50 | 1010.6 |
| 20260507182057 | 10 | 352 | 0.0 | 6.4 | 0.00 | 0.03 | 0.03 | 47 | 1010.8 |
| 20260507181627 | 10 | 0 | 0.0 | 12.9 | 0.00 | 0.03 | 0.03 | 49 | 1010.7 |
| 20260507181555 | 10 | 0 | 0.0 | 12.9 | 0.00 | 0.03 | 0.03 | 49 | 1010.7 |
| 20260507181058 | 10 | 0 | 0.0 | 12.9 | 0.00 | 0.03 | 0.03 | 55 | 1010.7 |
| 20260507180558 | 10 | 336 | 0.0 | 19.3 | 0.00 | 0.03 | 0.03 | 50 | 1010.8 |
| 20260507180056 | 9 | 0 | 0.0 | 19.3 | 0.00 | 0.03 | 0.03 | 55 | 1010.9 |
| 20260507175557 | 9 | 331 | 1.6 | 19.3 | 0.00 | 0.03 | 0.03 | 47 | 1010.8 |
| 20260507175056 | 9 | 0 | 0.0 | 6.4 | 0.00 | 0.03 | 0.03 | 49 | 1010.8 |
| 20260507174806 | 9 | 0 | 0.0 | 4.8 | 0.00 | 0.03 | 0.03 | 54 | 1010.9 |
| 20260507174101 | 9 | 0 | 0.0 | 4.8 | 0.00 | 0.03 | 0.03 | 54 | 1010.9 |
| 20260507173557 | 10 | 0 | 0.0 | 4.8 | 0.00 | 0.03 | 0.03 | 50 | 1010.8 |
| 20260507173254 | 10 | 0 | 0.0 | 4.8 | 0.00 | 0.03 | 0.03 | 56 | 1010.8 |
| 20260507173131 | 10 | 0 | 0.0 | 4.8 | 0.00 | 0.03 | 0.03 | 56 | 1010.8 |
| 20260507173058 | 10 | 0 | 0.0 | 4.8 | 0.00 | 0.03 | 0.03 | 56 | 1010.8 |
| 20260507172557 | 10 | 0 | 0.0 | 6.4 | 0.00 | 0.03 | 0.03 | 57 | 1010.9 |
| 20260507172058 | 10 | 0 | 0.0 | 6.4 | 0.00 | 0.03 | 0.03 | 55 | 1010.8 |
| 20260507171604 | 10 | 0 | 0.0 | 8.0 | 0.00 | 0.03 | 0.03 | 55 | 1011.0 |
| 20260507171058 | 9 | 0 | 0.0 | 8.0 | 0.00 | 0.03 | 0.03 | 56 | 1011.0 |
| 20260507170557 | 9 | 0 | 0.0 | 6.4 | 0.00 | 0.03 | 0.03 | 59 | 1011.1 |
| 20260507170131 | 9 | 0 | 0.0 | 6.4 | 0.00 | 0.03 | 0.03 | 57 | 1011.0 |
| 20260507165556 | 9 | 0 | 0.0 | 0.0 | 0.00 | 0.03 | 0.03 | 57 | 1011.2 |
| 20260507165057 | 8 | 0 | 0.0 | 6.4 | 0.00 | 0.03 | 0.03 | 61 | 1011.1 |
| 20260507164716 | 8 | 0 | 0.0 | 6.4 | 0.00 | 0.03 | 0.03 | 59 | 1011.2 |
| 20260507164058 | 9 | 0 | 0.0 | 4.8 | 0.00 | 0.03 | 0.03 | 58 | 1011.2 |
| 20260507163557 | 9 | 0 | 0.0 | 8.0 | 0.00 | 0.03 | 0.03 | 64 | 1011.3 |
| 20260507163247 | 8 | 0 | 0.0 | 8.0 | 0.00 | 0.03 | 0.03 | 63 | 1011.4 |
| 20260507162557 | 8 | 0 | 0.0 | 4.8 | 0.00 | 0.03 | 0.03 | 63 | 1011.4 |
| 20260507162056 | 8 | 0 | 0.0 | 6.4 | 0.00 | 0.03 | 0.03 | 59 | 1011.5 |
| 20260507161607 | 8 | 0 | 1.6 | 6.4 | 0.00 | 0.03 | 0.03 | 63 | 1011.4 |
| 20260507161057 | 8 | 0 | 0.0 | 4.8 | 0.00 | 0.03 | 0.03 | 67 | 1011.6 |
| 20260507160557 | 8 | 0 | 0.0 | 4.8 | 0.00 | 0.03 | 0.03 | 65 | 1011.6 |
| 20260507160100 | 7 | 0 | 0.0 | 8.0 | 0.00 | 0.03 | 0.03 | 68 | 1011.7 |
| 20260507155557 | 7 | 0 | 0.0 | 8.0 | 0.00 | 0.03 | 0.03 | 64 | 1011.8 |
| 20260507155057 | 6 | 0 | 0.0 | 9.7 | 0.00 | 0.03 | 0.03 | 64 | 1011.8 |
| 20260507154558 | 7 | 0 | 1.6 | 9.7 | 0.00 | 0.03 | 0.03 | 62 | 1011.8 |
| 20260507154057 | 7 | 0 | 0.0 | 8.0 | 0.00 | 0.03 | 0.03 | 61 | 1011.8 |
| 20260507153558 | 7 | 0 | 0.0 | 8.0 | 0.00 | 0.03 | 0.03 | 59 | 1011.8 |
| 20260507153156 | 7 | 5 | 0.0 | 4.8 | 0.00 | 0.03 | 0.03 | 61 | 1011.9 |
| 20260507152556 | 8 | 0 | 0.0 | 8.0 | 0.00 | 0.03 | 0.03 | 61 | 1011.9 |
| 20260507152058 | 8 | 0 | 0.0 | 11.3 | 0.00 | 0.03 | 0.03 | 57 | 1011.9 |
| 20260507151605 | 8 | 0 | 0.0 | 11.3 | 0.00 | 0.03 | 0.03 | 64 | 1011.8 |
| 20260507151055 | 7 | 0 | 0.0 | 8.0 | 0.00 | 0.03 | 0.03 | 62 | 1011.9 |
| 20260507150555 | 7 | 348 | 0.0 | 3.2 | 0.00 | 0.03 | 0.03 | 61 | 1012.0 |
| 20260507150101 | 7 | 0 | 0.0 | 1.6 | 0.00 | 0.03 | 0.03 | 64 | 1012.0 |
| 20260507145559 | 7 | 0 | 0.0 | 14.5 | 0.00 | 0.03 | 0.03 | 60 | 1012.2 |
| 20260507145055 | 7 | 0 | 0.0 | 14.5 | 0.00 | 0.03 | 0.03 | 61 | 1012.1 |
| 20260507144609 | 7 | 0 | 0.0 | 8.0 | 0.00 | 0.03 | 0.03 | 61 | 1011.9 |
| 20260507144056 | 7 | 306 | 1.6 | 6.4 | 0.00 | 0.03 | 0.03 | 64 | 1011.9 |
| 20260507143559 | 7 | 339 | 0.0 | 9.7 | 0.00 | 0.03 | 0.03 | 62 | 1012.1 |
| 20260507143419 | 7 | 0 | 0.0 | 9.7 | 0.00 | 0.03 | 0.03 | 60 | 1012.0 |
| 20260507142556 | 7 | 0 | 0.0 | 9.7 | 0.00 | 0.03 | 0.03 | 67 | 1012.0 |
| 20260507142058 | 7 | 0 | 0.0 | 1.6 | 0.00 | 0.03 | 0.03 | 63 | 1012.0 |
| 20260507141621 | 7 | 0 | 0.0 | 16.1 | 0.00 | 0.03 | 0.03 | 68 | 1011.9 |
| 20260507141057 | 6 | 0 | 0.0 | 16.1 | 0.00 | 0.03 | 0.03 | 64 | 1012.1 |
| 20260507140559 | 6 | 0 | 0.0 | 9.7 | 0.00 | 0.03 | 0.03 | 66 | 1012.1 |
| 20260507135556 | 6 | 215 | 0.0 | 6.4 | 0.00 | 0.03 | 0.03 | 64 | 1012.2 |
| 20260507135057 | 6 | 0 | 0.0 | 6.4 | 0.00 | 0.03 | 0.03 | 67 | 1012.2 |
| 20260507134618 | 6 | 0 | 0.0 | 6.4 | 0.00 | 0.03 | 0.03 | 65 | 1012.2 |
| 20260507134056 | 6 | 0 | 0.0 | 6.4 | 0.00 | 0.03 | 0.03 | 65 | 1012.2 |
| 20260507133559 | 6 | 0 | 0.0 | 4.8 | 0.00 | 0.03 | 0.03 | 69 | 1012.2 |
| 20260507133109 | 6 | 333 | 0.0 | 4.8 | 0.00 | 0.03 | 0.03 | 66 | 1012.2 |
| 20260507132556 | 6 | 0 | 0.0 | 4.8 | 0.00 | 0.03 | 0.03 | 65 | 1012.3 |
| 20260507132055 | 6 | 0 | 0.0 | 4.8 | 0.00 | 0.03 | 0.03 | 67 | 1012.2 |
| 20260507131612 | 6 | 0 | 0.0 | 3.2 | 0.00 | 0.03 | 0.03 | 69 | 1012.3 |
| 20260507131055 | 5 | 0 | 0.0 | 6.4 | 0.00 | 0.03 | 0.03 | 66 | 1012.2 |
| 20260507130557 | 6 | 0 | 0.0 | 6.4 | 0.00 | 0.03 | 0.03 | 68 | 1012.2 |
| 20260507125557 | 5 | 0 | 0.0 | 1.6 | 0.03 | 0.03 | 0.03 | 71 | 1012.2 |
| 20260507125058 | 5 | 0 | 0.0 | 4.8 | 0.03 | 0.03 | 0.03 | 72 | 1012.2 |
| 20260507124558 | 5 | 0 | 0.0 | 4.8 | 0.03 | 0.03 | 0.03 | 74 | 1012.1 |
| 20260507124058 | 5 | 0 | 0.0 | 4.8 | 0.03 | 0.03 | 0.03 | 74 | 1012.1 |
| 20260507123558 | 5 | 0 | 0.0 | 3.2 | 0.03 | 0.03 | 0.03 | 76 | 1012.0 |
| 20260507123411 | 4 | 0 | 0.0 | 3.2 | 0.03 | 0.03 | 0.03 | 78 | 1012.2 |
| 20260507122556 | 4 | 0 | 0.0 | 1.6 | 0.03 | 0.03 | 0.03 | 79 | 1012.2 |
| 20260507122059 | 4 | 0 | 0.0 | 3.2 | 0.03 | 0.03 | 0.03 | 78 | 1012.2 |
| 20260507121556 | 3 | 0 | 0.0 | 3.2 | 0.03 | 0.03 | 0.03 | 79 | 1012.2 |
| 20260507121058 | 3 | 0 | 0.0 | 3.2 | 0.03 | 0.03 | 0.03 | 78 | 1012.3 |
| 20260507120558 | 3 | 0 | 0.0 | 0.0 | 0.03 | 0.03 | 0.03 | 81 | 1012.2 |
| 20260507120056 | 3 | 0 | 0.0 | 0.0 | 0.00 | 0.00 | 0.00 | 82 | 1012.2 |
| 20260507115558 | 2 | 0 | 0.0 | 0.0 | 0.00 | 0.00 | 0.00 | 84 | 1012.2 |
| 20260507115057 | 2 | 0 | 0.0 | 0.0 | 0.00 | 0.00 | 0.00 | 86 | 1012.1 |
| 20260507114600 | 1 | 0 | 0.0 | 0.0 | 0.00 | 0.00 | 0.00 | 89 | 1012.1 |
| 20260507114057 | -17 | 0 | 0.0 | 0.0 | 0.00 | 0.00 | 0.00 | 1011.9 | |
| 20260507113558 | -17 | 0.0 | 0.0 | 0.00 | 0.00 | 0.00 | 1011.8 | ||
| 20260507113057 | -17 | 0.0 | 0.0 | 0.00 | 0.00 | 0.00 | 1011.7 | ||
| 20260507112557 | -17 | 0.0 | 0.0 | 0.00 | 0.00 | 0.00 | 1011.9 | ||
| 20260507112058 | -17 | 0.0 | 0.0 | 0.00 | 0.00 | 0.00 | 1012.0 | ||
| 20260507111637 | -17 | 0.0 | 0.0 | 0.00 | 0.00 | 0.00 | 1012.0 | ||
| 20260507111057 | -17 | 0.0 | 0.0 | 0.00 | 0.00 | 0.00 | 1011.9 | ||
| 20260507110558 | -17 | 0.0 | 0.0 | 0.00 | 0.00 | 0.00 | 1011.9 | ||
| 20260507105556 | -17 | 0.0 | 0.0 | 0.00 | 0.00 | 0.00 | 1012.0 | ||
| 20260507105058 | -17 | 0.0 | 0.0 | 0.00 | 0.00 | 0.00 | 1012.0 | ||
| 20260507104608 | -17 | 0.0 | 0.0 | 0.00 | 0.00 | 0.00 | 1012.0 | ||
| 20260507104101 | -17 | 0.0 | 0.0 | 0.00 | 0.00 | 0.00 | 1012.0 | ||
| 20260507103600 | -17 | 0.0 | 0.0 | 0.00 | 0.00 | 0.00 | 1011.9 | ||
| 20260507103117 | -17 | 0.0 | 0.0 | 0.00 | 0.00 | 0.00 | 1011.8 | ||
| 20260507102559 | -17 | 0.0 | 0.0 | 0.00 | 0.00 | 0.00 | 1011.7 | ||
| 20260507102100 | -17 | 0.0 | 0.0 | 0.00 | 0.00 | 0.00 | 1011.6 | ||
| 20260507101608 | -17 | 0.0 | 0.0 | 0.00 | 0.00 | 0.00 | 1011.5 | ||
| 20260507101100 | -17 | 0.0 | 0.0 | 0.00 | 0.00 | 0.00 | 1011.6 | ||
| 20260507100557 | -17 | 0.0 | 0.0 | 0.00 | 0.00 | 0.00 | 1011.6 | ||
| 20260507100118 | -17 | 0.0 | 0.0 | 0.00 | 0.00 | 0.00 | 1011.5 | ||
| 20260507095557 | -17 | 0.0 | 0.0 | 0.00 | 0.00 | 0.00 | 1011.6 | ||
| 20260507095057 | -17 | 0.0 | 0.0 | 0.00 | 0.00 | 0.00 | 1011.5 | ||
| 20260507094557 | -17 | 0.0 | 0.0 | 0.00 | 0.00 | 0.00 | 1011.5 | ||
| 20260507094101 | -17 | 0.0 | 0.0 | 0.00 | 0.00 | 0.00 | 1011.6 | ||
| 20260507093557 | -17 | 0.0 | 0.0 | 0.00 | 0.00 | 0.00 | 1011.6 | ||
| 20260507093113 | -17 | 0.0 | 0.0 | 0.00 | 0.00 | 0.00 | 1011.7 | ||
| 20260507092557 | -17 | 0.0 | 0.0 | 0.00 | 0.00 | 0.00 | 1011.7 | ||
| 20260507092056 | -17 | 0.0 | 0.0 | 0.00 | 0.00 | 0.00 | 1011.6 | ||
| 20260507091559 | -17 | 0.0 | 0.0 | 0.00 | 0.00 | 0.00 | 1011.8 | ||
| 20260507091102 | -17 | 0.0 | 0.0 | 0.00 | 0.00 | 0.00 | 1011.9 | ||
| 20260507090629 | -17 | 0.0 | 0.0 | 0.00 | 0.00 | 0.00 | 1011.8 | ||
| 20260507090559 | -17 | 0.0 | 0.0 | 0.00 | 0.00 | 0.00 | 1011.8 | ||
| 20260507090132 | -17 | 0.0 | 0.0 | 0.00 | 0.00 | 0.00 | 1011.7 | ||
| 20260507085558 | -17 | 0.0 | 0.0 | 0.00 | 0.00 | 0.00 | 1011.7 | ||
| 20260507085059 | -17 | 0.0 | 0.0 | 0.00 | 0.00 | 0.00 | 1011.8 | ||
| 20260507084558 | -17 | 0.0 | 0.0 | 0.00 | 0.00 | 0.00 | 1011.7 | ||
| 20260507084057 | -17 | 0.0 | 0.0 | 0.00 | 0.00 | 0.00 | 1011.6 | ||
| 20260507083601 | -17 | 0.0 | 0.0 | 0.00 | 0.00 | 0.00 | 1011.5 | ||
| 20260507083110 | -17 | 0.0 | 0.0 | 0.00 | 0.00 | 0.00 | 1011.6 | ||
| 20260507082556 | -17 | 0.0 | 0.0 | 0.00 | 0.00 | 0.00 | 1011.6 | ||
| 20260507082057 | -17 | 0.0 | 0.0 | 0.00 | 0.00 | 0.00 | 1011.6 | ||
| 20260507081602 | -17 | 0.0 | 0.0 | 0.00 | 0.00 | 0.00 | 1011.6 | ||
| 20260507081059 | -17 | 0.0 | 0.0 | 0.00 | 0.00 | 0.00 | 1011.5 | ||
| 20260507080556 | -17 | 0.0 | 0.0 | 0.00 | 0.00 | 0.00 | 1011.6 | ||
| 20260507080109 | -17 | 0.0 | 0.0 | 0.00 | 0.00 | 0.00 | 1011.5 | ||
| 20260507075559 | -17 | 0.0 | 0.0 | 0.00 | 0.00 | 0.00 | 1011.7 | ||
| 20260507075101 | -17 | 0.0 | 0.0 | 0.00 | 0.00 | 0.00 | 1011.6 | ||
| 20260507074558 | -17 | 0.0 | 0.0 | 0.00 | 0.00 | 0.00 | 1011.4 | ||
| 20260507074100 | -17 | 0.0 | 0.0 | 0.00 | 0.00 | 0.00 | 1011.4 | ||
| 20260507073603 | -17 | 0.0 | 0.0 | 0.00 | 0.00 | 0.00 | 1011.4 | ||
| 20260507073313 | -17 | 0.0 | 0.0 | 0.00 | 0.00 | 0.00 | 1011.5 | ||
| 20260507072602 | -17 | 0.0 | 0.0 | 0.00 | 0.00 | 0.00 | 1011.5 | ||
| 20260507072057 | -17 | 0.0 | 0.0 | 0.00 | 0.00 | 0.00 | 1011.4 | ||
| 20260507071717 | -17 | 0.0 | 0.0 | 0.00 | 0.00 | 0.00 | 1011.4 | ||
| 20260507071058 | -17 | 0.0 | 0.0 | 0.00 | 0.00 | 0.00 | 1011.4 | ||
| 20260507070556 | -17 | 0.0 | 0.0 | 0.00 | 0.00 | 0.00 | 1011.5 | ||
| 20260507070104 | -17 | 0.0 | 0.0 | 0.00 | 0.00 | 0.00 | 1011.5 | ||
| 20260507065559 | -17 | 0.0 | 0.0 | 0.00 | 0.00 | 0.00 | 1011.4 | ||
| 20260507065057 | -17 | 0.0 | 0.0 | 0.00 | 0.00 | 0.00 | 1011.4 | ||
| 20260507064631 | -17 | 0.0 | 0.0 | 0.00 | 0.00 | 0.00 | 1011.4 | ||
| 20260507064101 | -17 | 0.0 | 0.0 | 0.00 | 0.00 | 0.00 | 1011.5 | ||
| 20260507063558 | -17 | 0.0 | 0.0 | 0.00 | 0.00 | 0.00 | 1011.4 | ||
| 20260507063242 | -17 | 0.0 | 0.0 | 0.00 | 0.00 | 0.00 | 1011.4 | ||
| 20260507062557 | -17 | 0.0 | 0.0 | 0.00 | 0.00 | 0.00 | 1011.4 | ||
| 20260507062057 | -17 | 0.0 | 0.0 | 0.00 | 0.00 | 0.00 | 1011.4 | ||
| 20260507061557 | -17 | 0.0 | 0.0 | 0.00 | 0.00 | 0.00 | 1011.3 | ||
| 20260507061056 | -17 | 0.0 | 0.0 | 0.00 | 0.00 | 0.00 | 1011.3 | ||
| 20260507060556 | -17 | 0.0 | 0.0 | 0.00 | 0.00 | 0.00 | 1011.2 | ||
| 20260507060307 | -17 | 0.0 | 0.0 | 0.00 | 0.00 | 0.00 | 1011.4 | ||
| 20260507055557 | -17 | 0.0 | 0.0 | 0.00 | 0.00 | 0.00 | 1011.4 | ||
| 20260507055057 | -17 | 0.0 | 0.0 | 0.00 | 0.00 | 0.00 | 1011.5 | ||
| 20260507054606 | -17 | 0.0 | 0.0 | 0.00 | 0.00 | 0.00 | 1011.6 | ||
| 20260507054058 | -17 | 0.0 | 0.0 | 0.00 | 0.00 | 0.00 | 1011.7 | ||
| 20260507053557 | -17 | 0.0 | 0.0 | 0.00 | 0.00 | 0.00 | 1011.6 | ||
| 20260507053110 | -17 | 0.0 | 0.0 | 0.00 | 0.00 | 0.00 | 1011.6 | ||
| 20260507052557 | -17 | 0.0 | 0.0 | 0.00 | 0.00 | 0.00 | 1011.6 | ||
| 20260507052057 | -17 | 0.0 | 0.0 | 0.00 | 0.00 | 0.00 | 1011.8 | ||
| 20260507051615 | -17 | 0.0 | 0.0 | 0.00 | 0.00 | 0.00 | 1011.7 | ||
| 20260507051056 | -17 | 0.0 | 0.0 | 0.00 | 0.00 | 0.00 | 1011.6 | ||
| 20260507050557 | -17 | 0.0 | 0.0 | 0.00 | 0.00 | 0.00 | 1011.7 | ||
| 20260507050058 | -17 | 0.0 | 0.0 | 0.00 | 0.00 | 0.00 | 1011.6 | ||
| 20260507045557 | -17 | 0.0 | 0.0 | 0.00 | 0.00 | 0.00 | 1011.5 | ||
| 20260507045057 | -17 | 0.0 | 0.0 | 0.00 | 0.00 | 0.00 | 1011.4 | ||
| 20260507044600 | -17 | 0.0 | 0.0 | 0.00 | 0.00 | 0.00 | 1011.4 | ||
| 20260507044057 | -17 | 0.0 | 0.0 | 0.00 | 0.00 | 0.00 | 1011.5 | ||
| 20260507043556 | -17 | 0.0 | 0.0 | 0.00 | 0.00 | 0.00 | 1011.4 | ||
| 20260507043100 | -17 | 0.0 | 0.0 | 0.00 | 0.00 | 0.00 | 1011.2 | ||
| 20260507042559 | -17 | 0.0 | 0.0 | 0.00 | 0.00 | 0.00 | 1011.1 | ||
| 20260507042057 | -17 | 0.0 | 0.0 | 0.00 | 0.00 | 0.00 | 1010.9 | ||
| 20260507041559 | -17 | 0.0 | 0.0 | 0.00 | 0.00 | 0.00 | 1010.8 | ||
| 20260507041057 | -17 | 0.0 | 0.0 | 0.00 | 0.00 | 0.00 | 1010.8 | ||
| 20260507040558 | -17 | 0.0 | 0.0 | 0.00 | 0.00 | 0.00 | 1010.9 | ||
| 20260507040058 | -17 | 0.0 | 0.0 | 0.00 | 0.00 | 0.00 | 1010.9 | ||
| 20260507035557 | -17 | 0.0 | 0.0 | 0.00 | 0.00 | 0.00 | 1010.9 | ||
| 20260507035058 | -17 | 0.0 | 0.0 | 0.00 | 0.00 | 0.00 | 1010.9 | ||
| 20260507034558 | -17 | 0.0 | 0.0 | 0.00 | 0.00 | 0.00 | 1010.9 | ||
| 20260507034057 | -17 | 0.0 | 0.0 | 0.00 | 0.00 | 0.00 | 1011.0 | ||
| 20260507033557 | -17 | 0.0 | 0.0 | 0.00 | 0.00 | 0.00 | 1011.1 | ||
| 20260507033055 | -17 | 0.0 | 0.0 | 0.00 | 0.00 | 0.00 | 1011.1 | ||
| 20260507032558 | -17 | 0.0 | 0.0 | 0.00 | 0.00 | 0.00 | 1011.1 | ||
| 20260507032056 | -17 | 0.0 | 0.0 | 0.00 | 0.00 | 0.00 | 1011.1 | ||
| 20260507031556 | -17 | 0.0 | 0.0 | 0.00 | 0.00 | 0.00 | 1011.1 | ||
| 20260507031057 | -17 | 0.0 | 0.0 | 0.00 | 0.00 | 0.00 | 1011.2 | ||
| 20260507030556 | -17 | 0.0 | 0.0 | 0.00 | 0.00 | 0.00 | 1011.2 | ||
| 20260507030301 | -17 | 0.0 | 0.0 | 0.00 | 0.00 | 0.00 | 1011.1 | ||
| 20260507030058 | -17 | 0.0 | 0.0 | 0.00 | 0.00 | 0.00 | 1011.1 | ||
| 20260507025556 | -17 | 0.0 | 0.0 | 0.00 | 0.00 | 0.00 | 1010.9 | ||
| 20260507025058 | -17 | 0.0 | 0.0 | 0.00 | 0.00 | 0.00 | 1010.9 | ||
| 20260507024731 | -17 | 0.0 | 0.0 | 0.00 | 0.00 | 0.00 | 1011.0 | ||
| 20260507024559 | -17 | 0.0 | 0.0 | 0.00 | 0.00 | 0.00 | 1011.0 | ||
| 20260507024057 | -17 | 0.0 | 0.0 | 0.00 | 0.00 | 0.00 | 1011.1 | ||
| 20260507023556 | -17 | 0.0 | 0.0 | 0.00 | 0.00 | 0.00 | 1011.2 | ||
| 20260507023109 | -17 | 0.0 | 0.0 | 0.00 | 0.00 | 0.00 | 1011.1 | ||
| 20260507022557 | -17 | 0.0 | 0.0 | 0.00 | 0.00 | 0.00 | 1011.0 | ||
| 20260507022057 | -17 | 0.0 | 0.0 | 0.00 | 0.00 | 0.00 | 1011.1 | ||
| 20260507021744 | -17 | 0.0 | 0.0 | 0.00 | 0.00 | 0.00 | 1011.1 | ||
| 20260507021713 | -17 | 0.0 | 0.0 | 0.00 | 0.00 | 0.00 | 1011.1 | ||
| 20260507021615 | -17 | 0.0 | 0.0 | 0.00 | 0.00 | 0.00 | 1011.1 | ||
| 20260507021057 | -17 | 0.0 | 0.0 | 0.00 | 0.00 | 0.00 | 1011.2 | ||
| 20260507020557 | -17 | 0.0 | 0.0 | 0.00 | 0.00 | 0.00 | 1011.1 | ||
| 20260507020119 | -17 | 0.0 | 0.0 | 0.00 | 0.00 | 0.00 | 1011.2 | ||
| 20260507015556 | -17 | 0.0 | 0.0 | 0.00 | 0.00 | 0.00 | 1011.1 | ||
| 20260507015057 | -17 | 0.0 | 0.0 | 0.00 | 0.00 | 0.00 | 1011.3 | ||
| 20260507014604 | -17 | 0.0 | 0.0 | 0.00 | 0.00 | 0.00 | 1011.3 | ||
| 20260507014057 | -17 | 0.0 | 0.0 | 0.00 | 0.00 | 0.00 | 1011.4 | ||
| 20260507013557 | -17 | 0.0 | 0.0 | 0.00 | 0.00 | 0.00 | 1011.4 | ||
| 20260507013055 | -17 | 0.0 | 0.0 | 0.00 | 0.00 | 0.00 | 1011.3 | ||
| 20260507012559 | -17 | 0.0 | 0.0 | 0.00 | 0.00 | 0.00 | 1011.3 | ||
| 20260507012057 | -17 | 0.0 | 0.0 | 0.00 | 0.00 | 0.00 | 1011.3 | ||
| 20260507011730 | -17 | 0.0 | 0.0 | 0.00 | 0.00 | 0.00 | 1011.3 | ||
| 20260507011056 | -17 | 0.0 | 0.0 | 0.00 | 0.00 | 0.00 | 1011.2 | ||
| 20260507010558 | -17 | 0.0 | 0.0 | 0.00 | 0.00 | 0.00 | 1011.4 | ||
| 20260507010149 | -17 | 0.0 | 0.0 | 0.00 | 0.00 | 0.00 | 1011.3 | ||
| 20260507005556 | -17 | 0.0 | 0.0 | 0.00 | 0.00 | 0.00 | 1011.0 | ||
| 20260507005057 | -17 | 0.0 | 0.0 | 0.00 | 0.00 | 0.00 | 1011.1 | ||
| 20260507004609 | -17 | 0.0 | 0.0 | 0.00 | 0.00 | 0.00 | 1011.0 | ||
| 20260507004057 | -17 | 0.0 | 0.0 | 0.00 | 0.00 | 0.00 | 1010.9 | ||
| 20260507003558 | -17 | 0.0 | 0.0 | 0.00 | 0.00 | 0.00 | 1010.9 | ||
| 20260507003307 | -17 | 0.0 | 0.0 | 0.00 | 0.00 | 0.00 | 1011.0 | ||
| 20260507002557 | -17 | 0.0 | 0.0 | 0.00 | 0.00 | 0.00 | 1011.0 | ||
| 20260507002058 | -17 | 0.0 | 0.0 | 0.00 | 0.00 | 0.00 | 1010.8 | ||
| 20260507001605 | -17 | 0.0 | 0.0 | 0.00 | 0.00 | 0.00 | 1010.8 | ||
| 20260507001057 | -17 | 0.0 | 0.0 | 0.00 | 0.00 | 0.00 | 1010.8 | ||
| 20260507000559 | -17 | 0.0 | 0.0 | 0.00 | 0.00 | 0.00 | 1010.5 | ||
| 20260507000056 | -17 | 0.0 | 0.0 | 0.00 | 0.00 | 0.00 | 1010.4 | ||
| 20260506235557 | -17 | 0.0 | 0.0 | 0.00 | 0.00 | 0.00 | 1010.4 | ||
| 20260506235100 | -17 | 0.0 | 0.0 | 0.00 | 0.00 | 0.00 | 1010.1 | ||
| 20260506234559 | -17 | 0.0 | 0.0 | 0.00 | 0.00 | 0.00 | 1009.9 | ||
| 20260506234056 | -17 | 0.0 | 0.0 | 0.00 | 0.00 | 0.00 | 1009.8 | ||
| 20260506233557 | -17 | 0.0 | 0.0 | 0.00 | 0.00 | 0.00 | 1010.0 | ||
| 20260506233102 | -17 | 0.0 | 0.0 | 0.00 | 0.00 | 0.00 | 1010.0 | ||
| 20260506232600 | -17 | 0.0 | 0.0 | 0.00 | 0.00 | 0.00 | 1010.0 | ||
| 20260506232057 | -17 | 0.0 | 0.0 | 0.00 | 0.00 | 0.00 | 1010.0 | ||
| 20260506231610 | -17 | 0.0 | 0.0 | 0.00 | 0.00 | 0.00 | 1010.0 | ||
| 20260506231057 | -17 | 0.0 | 0.0 | 0.00 | 0.00 | 0.00 | 1009.8 | ||
| 20260506230556 | -17 | 0.0 | 0.0 | 0.00 | 0.00 | 0.00 | 1009.9 | ||
| 20260506230133 | -17 | 0.0 | 0.0 | 0.00 | 0.00 | 0.00 | 1010.0 | ||
| 20260506225558 | -17 | 0.0 | 0.0 | 0.00 | 0.00 | 0.00 | 1010.1 | ||
| 20260506225057 | -17 | 0.0 | 0.0 | 0.00 | 0.00 | 0.00 | 1010.0 | ||
| 20260506224556 | -17 | 0.0 | 0.0 | 0.00 | 0.00 | 0.00 | 1009.9 | ||
| 20260506224056 | -17 | 0.0 | 0.0 | 0.00 | 0.00 | 0.00 | 1009.9 | ||
| 20260506223556 | -17 | 0.0 | 0.0 | 0.00 | 0.00 | 0.00 | 1009.8 | ||
| 20260506223057 | -17 | 0.0 | 0.0 | 0.00 | 0.00 | 0.00 | 1009.8 | ||
| 20260506222556 | -17 | 0.0 | 0.0 | 0.00 | 0.00 | 0.00 | 1009.9 | ||
| 20260506222057 | -17 | 0.0 | 0.0 | 0.00 | 0.00 | 0.00 | 1009.9 | ||
| 20260506221617 | -17 | 0.0 | 0.0 | 0.00 | 0.00 | 0.00 | 1009.6 | ||
| 20260506221057 | -17 | 0.0 | 0.0 | 0.00 | 0.00 | 0.00 | 1009.6 | ||
| 20260506220556 | -17 | 0.0 | 0.0 | 0.00 | 0.00 | 0.00 | 1009.8 | ||
| 20260506220115 | -17 | 0.0 | 0.0 | 0.00 | 0.00 | 0.00 | 1009.6 | ||
| 20260506215557 | -17 | 0.0 | 0.0 | 0.00 | 0.00 | 0.00 | 1009.6 | ||
| 20260506215057 | -17 | 0.0 | 0.0 | 0.00 | 0.00 | 0.00 | 1009.6 | ||
| 20260506214557 | -17 | 0.0 | 0.0 | 0.00 | 0.00 | 0.00 | 1009.5 | ||
| 20260506214058 | -17 | 0.0 | 0.0 | 0.00 | 0.00 | 0.00 | 1009.5 | ||
| 20260506213557 | -17 | 0.0 | 0.0 | 0.00 | 0.00 | 0.00 | 1009.5 | ||
| 20260506213110 | -17 | 0.0 | 0.0 | 0.00 | 0.00 | 0.00 | 1009.4 | ||
| 20260506212558 | -17 | 0.0 | 0.0 | 0.00 | 0.00 | 0.00 | 1009.3 | ||
| 20260506212059 | -17 | 0.0 | 0.0 | 0.00 | 0.00 | 0.00 | 1009.3 | ||
| 20260506211655 | -17 | 0.0 | 0.0 | 0.00 | 0.00 | 0.00 | 1009.2 | ||
| 20260506211600 | -17 | 0.0 | 0.0 | 0.00 | 0.00 | 0.00 | 1009.2 | ||
| 20260506211057 | -17 | 0.0 | 0.0 | 0.00 | 0.00 | 0.00 | 1009.1 | ||
| 20260506210557 | -17 | 0.0 | 0.0 | 0.00 | 0.00 | 0.00 | 1009.0 | ||
| 20260506210119 | -17 | 0.0 | 0.0 | 0.00 | 0.00 | 0.00 | 1009.0 | ||
| 20260506205557 | -17 | 0.0 | 0.0 | 0.00 | 0.00 | 0.00 | 1008.8 | ||
| 20260506205058 | -17 | 0.0 | 0.0 | 0.00 | 0.00 | 0.00 | 1009.0 | ||
| 20260506204610 | -17 | 0.0 | 0.0 | 0.00 | 0.00 | 0.00 | 1008.7 | ||
| 20260506204058 | -17 | 0.0 | 0.0 | 0.00 | 0.00 | 0.00 | 1008.7 | ||
| 20260506203558 | -17 | 0.0 | 0.0 | 0.00 | 0.00 | 0.00 | 1008.7 | ||
| 20260506203109 | -17 | 0.0 | 0.0 | 0.00 | 0.00 | 0.00 | 1008.5 | ||
| 20260506202557 | -17 | 0.0 | 0.0 | 0.00 | 0.00 | 0.00 | 1008.5 | ||
| 20260506202057 | -17 | 0.0 | 0.0 | 0.00 | 0.00 | 0.00 | 1008.4 | ||
| 20260506201638 | -17 | 0.0 | 0.0 | 0.00 | 0.00 | 0.00 | 1008.4 | ||
| 20260506201057 | -17 | 0.0 | 0.0 | 0.00 | 0.00 | 0.00 | 1008.4 | ||
| 20260506200558 | -17 | 0.0 | 0.0 | 0.00 | 0.00 | 0.00 | 1008.3 | ||
| 20260506200115 | -17 | 0.0 | 0.0 | 0.00 | 0.00 | 0.00 | 1008.3 | ||
| 20260506195557 | -17 | 0.0 | 0.0 | 0.00 | 0.08 | 0.00 | 1008.2 | ||
| 20260506195059 | -17 | 0.0 | 0.0 | 0.00 | 0.08 | 0.00 | 1008.2 | ||
| 20260506194733 | -17 | 0.0 | 0.0 | 0.00 | 0.08 | 0.00 | 1008.2 | ||
| 20260506194056 | -17 | 0.0 | 0.0 | 0.00 | 0.08 | 0.00 | 1008.2 | ||
| 20260506193558 | -17 | 0.0 | 0.0 | 0.00 | 0.08 | 0.00 | 1008.2 | ||
| 20260506193116 | -17 | 0.0 | 0.0 | 0.00 | 0.08 | 0.00 | 1008.3 | ||
| 20260506192559 | -17 | 0.0 | 0.0 | 0.00 | 0.08 | 0.00 | 1008.2 | ||
| 20260506192058 | -17 | 0.0 | 0.0 | 0.00 | 0.08 | 0.00 | 1008.2 | ||
| 20260506191615 | -17 | 0.0 | 0.0 | 0.00 | 0.08 | 0.00 | 1008.2 | ||
| 20260506191058 | -17 | 0.0 | 0.0 | 0.00 | 0.08 | 0.00 | 1008.1 | ||
| 20260506190556 | -17 | 0.0 | 0.0 | 0.00 | 0.08 | 0.00 | 1008.0 | ||
| 20260506190303 | -17 | 0.0 | 0.0 | 0.00 | 0.08 | 0.00 | 1008.0 |